Flag for U.S.A. Weather past 2 weeks in Juneau, Alaska, U.S.A.

Now
55 °F

Scattered clouds.


Feels Like: 52 °F
Forecast: 44 / 64 °F
Wind: 10 mph from Southwest

Location: Juneau International Airport

Current Time: May 28, 2015 at 10:59:18 AM

Latest Report: May 28, 2015 at 9:53 AM


Visibility: 10 mi

Pressure: 30.23 "Hg

Humidity: 77%

Dew point: 48 °F

Location of JuneauLocation

Historic Weather in Juneau — Graph

°F

Juneau temperature yesterday

Maximum temperature yesterday: 58 °F (at 2:53 PM)
Minimum temperature yesterday: 49 °F (at 11:53 PM)
Average temperature yesterday: 53 °F

Past Weeks' High & Low Weather Summary

 TemperatureHumidityPressure
High73 °F (May 18, 3:53 PM)97% (May 28, 2:00 AM)30.25 "Hg (May 28, 2:00 AM)
Low43 °F (May 14, 4:53 AM)30% (May 13, 4:53 PM)29.86 "Hg (May 14, 7:53 PM)
Average58 °F66%30.07 "Hg
* Reported May 13 9:53 AM — May 28 9:53 AM, Juneau, Weather by CustomWeather, © 2015

Note: Actual official high and low records may vary slightly from our data, if they occured in-between our weather recording intervals... More about our weather records

Advertising

Juneau weather history for previous 24 hours

 ConditionsComfort  
Time TempWeatherWind HumidityBarometerVisibility
9:53 AM
Thu, May 28
55 °FScattered clouds.10 mph77%30.23 "Hg10 mi
8:53 AM54 °FBroken clouds.7 mph80%30.24 "Hg10 mi
7:53 AM52 °FBroken clouds.6 mph83%30.25 "Hg10 mi
6:53 AM52 °FBroken clouds.6 mph86%30.24 "Hg10 mi
5:53 AM49 °FPartly sunny.3 mph93%30.25 "Hg10 mi
4:53 AM48 °FPassing clouds.No wind93%30.25 "Hg10 mi
3:53 AM47 °FPassing clouds.No wind93%30.24 "Hg10 mi
2:53 AM48 °FPassing clouds.No wind93%30.25 "Hg10 mi
2:00 AM47 °FLow clouds.No wind97%30.25 "Hg10 mi
12:53 AM46 °FPartly cloudy.3 mph96%30.24 "Hg10 mi
11:53 PM
Wed, May 27
49 °FPartly cloudy.No wind93%30.24 "Hg10 mi
10:53 PM50 °FPassing clouds.No wind93%30.23 "Hg10 mi
9:53 PM51 °FLight rain. Mostly cloudy.No wind92%30.23 "Hg10 mi
8:53 PM52 °FLight rain. Fog.No wind86%30.22 "Hg6 mi
7:53 PM54 °FLight rain. Mostly cloudy.3 mph77%30.21 "Hg10 mi
6:53 PM54 °FMostly cloudy.6 mph69%30.20 "Hg10 mi
5:53 PM55 °FMostly cloudy.9 mph67%30.20 "Hg10 mi
4:53 PM56 °FMostly cloudy.9 mph62%30.20 "Hg10 mi
3:53 PM57 °FCloudy.12 mph62%30.20 "Hg10 mi
2:53 PM58 °FBroken clouds.16 mph62%30.21 "Hg10 mi
1:53 PM57 °FBroken clouds.15 mph62%30.20 "Hg10 mi
12:53 PM56 °FBroken clouds.14 mph70%30.19 "Hg10 mi
11:53 AM54 °FBroken clouds.6 mph72%30.19 "Hg10 mi
10:53 AM52 °FLight rain. Mostly cloudy.6 mph83%30.18 "Hg10 mi
Weather by CustomWeather, © 2015

See weather overviewHow to use our weather pages